02-01-2022, 00:00:08,    190,    0.3,   10.1,   0.00,   0.00, 1008.7,   90.9, -999.0
02-01-2022, 00:00:18,    206,    1.4,   10.1,   0.00,   0.00, 1008.8,   91.1, -999.0
02-01-2022, 00:00:28,    208,    0.9,   10.2,   0.00,   0.00, 1008.8,   91.0, -999.0
02-01-2022, 00:00:38,    201,    3.7,   10.2,   0.00,   0.00, 1008.8,   90.9, -999.0
02-01-2022, 00:00:48,    184,    3.2,   10.2,   0.00,   0.00, 1008.8,   91.0, -999.0
02-01-2022, 00:00:58,    210,    1.8,   10.3,   0.00,   0.00, 1008.8,   91.0, -999.0
02-01-2022, 00:01:08,    217,    0.6,   10.2,   0.00,   0.00, 1008.7,   90.9, -999.0
02-01-2022, 00:01:18,    212,    0.0,   10.1,   0.00,   0.00, 1008.7,   90.6, -999.0
02-01-2022, 00:01:28,    174,    1.3,   10.2,   0.00,   0.00, 1008.8,   91.0, -999.0
02-01-2022, 00:01:38,    185,    0.8,   10.2,   0.00,   0.00, 1008.8,   90.9, -999.0
02-01-2022, 00:01:48,    213,    1.3,   10.2,   0.00,   0.00, 1008.8,   91.0, -999.0
02-01-2022, 00:01:58,    223,    1.8,   10.2,   0.00,   0.00, 1008.8,   91.0, -999.0
02-01-2022, 00:02:08,    234,    0.6,   10.2,   0.00,   0.00, 1008.7,   90.9, -999.0
02-01-2022, 00:02:17,    217,    1.7,   10.2,   0.00,   0.00, 1008.8,   91.0, -999.0
02-01-2022, 00:02:27,    131,    0.5,   10.2,   0.00,   0.00, 1008.7,   90.9, -999.0
02-01-2022, 00:02:38,    187,    1.6,   10.1,   0.00,   0.00, 1008.8,   91.0, -999.0
02-01-2022, 00:02:47,    153,    1.2,   10.2,   0.00,   0.00, 1008.8,   90.8, -999.0
02-01-2022, 00:02:57,    201,    0.8,   10.2,   0.00,   0.00, 1008.8,   90.9, -999.0
02-01-2022, 00:03:07,    202,    1.0,   10.2,   0.00,   0.00, 1008.8,   91.0, -999.0
02-01-2022, 00:03:17,    208,    0.8,   10.2,   0.00,   0.00, 1008.8,   91.0, -999.0
02-01-2022, 00:03:27,    161,    0.3,   10.1,   0.00,   0.00, 1008.7,   90.7, -999.0
02-01-2022, 00:03:37,    207,    1.1,   10.1,   0.00,   0.00, 1008.8,   91.0, -999.0
02-01-2022, 00:03:47,    205,    0.4,   10.1,   0.00,   0.00, 1008.7,   90.8, -999.0
02-01-2022, 00:03:57,    203,    1.6,   10.2,   0.00,   0.00, 1008.8,   90.9, -999.0
02-01-2022, 00:04:07,    202,    0.8,   10.2,   0.00,   0.00, 1008.7,   90.8, -999.0
02-01-2022, 00:04:17,    202,    0.0,   10.1,   0.00,   0.00, 1008.6,   90.6, -999.0
02-01-2022, 00:04:27,    218,    1.0,   10.1,   0.00,   0.00, 1008.7,   90.9, -999.0
02-01-2022, 00:04:37,    149,    1.6,   10.2,   0.00,   0.00, 1008.8,   90.9, -999.0
02-01-2022, 00:04:47,    213,    0.9,   10.2,   0.00,   0.00, 1008.7,   90.9, -999.0
02-01-2022, 00:04:56,    209,    1.1,   10.2,   0.00,   0.00, 1008.7,   90.9, -999.0
02-01-2022, 00:05:07,    225,    2.3,   10.2,   0.00,   0.00, 1008.8,   90.9, -999.0
02-01-2022, 00:05:17,    195,    1.3,   10.2,   0.00,   0.00, 1008.7,   90.9, -999.0
02-01-2022, 00:05:26,    214,    0.8,   10.2,   0.00,   0.00, 1008.7,   90.9, -999.0
02-01-2022, 00:05:36,    154,    1.3,   10.2,   0.00,   0.00, 1008.7,   90.9, -999.0
02-01-2022, 00:05:47,    218,    1.3,   10.2,   0.00,   0.00, 1008.7,   91.0, -999.0
02-01-2022, 00:05:56,    197,    3.5,   10.2,   0.00,   0.00, 1008.8,   90.9, -999.0
02-01-2022, 00:06:06,    204,    2.1,   10.2,   0.00,   0.00, 1008.8,   90.9, -999.0
02-01-2022, 00:06:17,    199,    1.3,   10.2,   0.00,   0.00, 1008.7,   91.0, -999.0
02-01-2022, 00:06:26,    154,    2.0,   10.2,   0.00,   0.00, 1008.8,   91.0, -999.0
02-01-2022, 00:06:36,    200,    1.6,   10.1,   0.00,   0.00, 1008.7,   91.1, -999.0
02-01-2022, 00:06:46,    225,    0.5,   10.1,   0.00,   0.00, 1008.7,   90.8, -999.0
02-01-2022, 00:06:56,    224,    0.9,   10.2,   0.00,   0.00, 1008.7,   90.9, -999.0
02-01-2022, 00:07:06,    204,    1.0,   10.1,   0.00,   0.00, 1008.7,   90.9, -999.0
02-01-2022, 00:07:16,    203,    0.6,   10.2,   0.00,   0.00, 1008.7,   90.9, -999.0
02-01-2022, 00:07:26,    212,    0.9,   10.2,   0.00,   0.00, 1008.7,   91.1, -999.0
02-01-2022, 00:07:36,    231,    1.3,   10.2,   0.00,   0.00, 1008.7,   90.9, -999.0
02-01-2022, 00:07:46,    214,    0.6,   10.2,   0.00,   0.00, 1008.7,   90.7, -999.0
02-01-2022, 00:07:56,    164,    2.0,   10.2,   0.00,   0.00, 1008.7,   90.8, -999.0
02-01-2022, 00:08:05,    226,    1.2,   10.1,   0.00,   0.00, 1008.7,   90.9, -999.0
02-01-2022, 00:08:16,    165,    2.8,   10.1,   0.00,   0.00, 1008.7,   90.8, -999.0
02-01-2022, 00:08:26,    195,    2.0,   10.1,   0.00,   0.00, 1008.7,   90.8, -999.0
02-01-2022, 00:08:35,    219,    1.5,   10.2,   0.00,   0.00, 1008.7,   90.8, -999.0
02-01-2022, 00:08:46,    203,    1.5,   10.1,   0.00,   0.00, 1008.7,   90.9, -999.0
02-01-2022, 00:08:56,    193,    1.0,   10.1,   0.00,   0.00, 1008.7,   90.9, -999.0
02-01-2022, 00:09:05,    193,    0.1,   10.2,   0.00,   0.00, 1008.6,   90.7, -999.0
02-01-2022, 00:09:15,    218,    0.9,   10.1,   0.00,   0.00, 1008.6,   90.9, -999.0
02-01-2022, 00:09:25,    218,    0.2,   10.2,   0.00,   0.00, 1008.6,   90.9, -999.0
02-01-2022, 00:09:35,    219,    0.0,   10.1,   0.00,   0.00, 1008.6,   90.6, -999.0
02-01-2022, 00:09:45,    223,    1.0,   10.1,   0.00,   0.00, 1008.7,   90.9, -999.0
02-01-2022, 00:09:55,    214,    3.6,   10.1,   0.00,   0.00, 1008.6,   91.0, -999.0
02-01-2022, 00:10:05,    181,    3.4,   10.1,   0.00,   0.00, 1008.7,   90.9, -999.0
02-01-2022, 00:10:15,    229,    1.6,   10.2,   0.00,   0.00, 1008.6,   91.0, -999.0
02-01-2022, 00:10:25,    177,    2.2,   10.2,   0.00,   0.00, 1008.7,   91.0, -999.0
02-01-2022, 00:10:35,    203,    1.8,   10.2,   0.00,   0.00, 1008.7,   90.9, -999.0
02-01-2022, 00:10:45,    203,    0.7,   10.2,   0.00,   0.00, 1008.7,   91.0, -999.0
02-01-2022, 00:10:55,    203,    1.5,   10.1,   0.00,   0.00, 1008.7,   90.9, -999.0
02-01-2022, 00:11:05,    244,    3.5,   10.1,   0.00,   0.00, 1008.6,   90.9, -999.0
02-01-2022, 00:11:15,    205,    3.3,   10.2,   0.00,   0.00, 1008.7,   91.0, -999.0
02-01-2022, 00:11:25,    160,    3.8,   10.2,   0.00,   0.00, 1008.7,   91.0, -999.0
02-01-2022, 00:11:35,    171,    1.8,   10.2,   0.00,   0.00, 1008.7,   90.8, -999.0
02-01-2022, 00:11:44,    214,    1.6,   10.2,   0.00,   0.00, 1008.7,   90.9, -999.0
02-01-2022, 00:11:55,    219,    2.4,   10.2,   0.00,   0.00, 1008.7,   91.0, -999.0
02-01-2022, 00:12:04,    212,    1.7,   10.2,   0.00,   0.00, 1008.7,   91.1, -999.0
02-01-2022, 00:12:14,    217,    0.6,   10.2,   0.00,   0.00, 1008.6,   91.0, -999.0
02-01-2022, 00:12:25,    186,    1.3,   10.2,   0.00,   0.00, 1008.7,   90.8, -999.0
02-01-2022, 00:12:34,    184,    0.7,   10.1,   0.00,   0.00, 1008.7,   91.2, -999.0
02-01-2022, 00:12:44,    191,    0.7,   10.1,   0.00,   0.00, 1008.6,   90.8, -999.0
02-01-2022, 00:12:54,    212,    0.3,   10.1,   0.00,   0.00, 1008.6,   90.8, -999.0
02-01-2022, 00:13:04,    214,    1.8,   10.2,   0.00,   0.00, 1008.7,   90.9, -999.0
02-01-2022, 00:13:14,    215,    0.4,   10.2,   0.00,   0.00, 1008.6,   90.8, -999.0
02-01-2022, 00:13:24,    207,    1.2,   10.2,   0.00,   0.00, 1008.6,   90.9, -999.0
02-01-2022, 00:13:34,    181,    1.0,   10.1,   0.00,   0.00, 1008.6,   90.6, -999.0
02-01-2022, 00:13:44,    196,    1.3,   10.2,   0.00,   0.00, 1008.6,   90.9, -999.0
02-01-2022, 00:13:54,    210,    1.0,   10.2,   0.00,   0.00, 1008.6,   91.0, -999.0
02-01-2022, 00:14:04,    220,    0.9,   10.2,   0.00,   0.00, 1008.6,   90.9, -999.0
02-01-2022, 00:14:14,    220,    1.4,   10.2,   0.00,   0.00, 1008.6,   91.0, -999.0
02-01-2022, 00:14:24,    219,    0.1,   10.1,   0.00,   0.00, 1008.5,   90.6, -999.0
02-01-2022, 00:14:34,    217,    0.1,   10.1,   0.00,   0.00, 1008.5,   90.7, -999.0
02-01-2022, 00:14:43,    211,    0.3,   10.1,   0.00,   0.00, 1008.6,   90.6, -999.0
02-01-2022, 00:14:54,    230,    0.3,   10.1,   0.00,   0.00, 1008.6,   90.7, -999.0
02-01-2022, 00:15:04,    201,    0.1,   10.1,   0.00,   0.00, 1008.5,   90.7, -999.0
02-01-2022, 00:15:13,    202,    0.0,   10.0,   0.00,   0.00, 1008.5,   90.6, -999.0
02-01-2022, 00:15:23,    201,    0.6,   10.1,   0.00,   0.00, 1008.6,   90.7, -999.0
02-01-2022, 00:15:36,    216,    0.3,   10.1,   0.00,   0.00, 1008.6,   90.5, -999.0
02-01-2022, 00:15:43,    225,    0.8,   10.1,   0.00,   0.00, 1008.6,   90.7, -999.0
02-01-2022, 00:15:53,    224,    0.3,   10.1,   0.00,   0.00, 1008.6,   90.6, -999.0
02-01-2022, 00:16:03,    221,    0.3,   10.1,   0.00,   0.00, 1008.6,   90.8, -999.0
02-01-2022, 00:16:13,    229,    0.8,   10.1,   0.00,   0.00, 1008.6,   90.7, -999.0
02-01-2022, 00:16:23,    207,    0.9,   10.1,   0.00,   0.00, 1008.6,   90.6, -999.0
02-01-2022, 00:16:33,    206,    0.2,   10.0,   0.00,   0.00, 1008.5,   90.6, -999.0
02-01-2022, 00:16:43,    206,    0.5,   10.0,   0.00,   0.00, 1008.6,   90.6, -999.0
02-01-2022, 00:16:53,    206,    0.1,   10.0,   0.00,   0.00, 1008.5,   90.5, -999.0
02-01-2022, 00:17:03,    206,    0.2,   10.0,   0.00,   0.00, 1008.5,   90.6, -999.0
02-01-2022, 00:17:13,    206,    0.0,   10.0,   0.00,   0.00, 1008.5,   90.6, -999.0
02-01-2022, 00:17:23,    205,    0.1,   10.1,   0.00,   0.00, 1008.6,   90.7, -999.0
02-01-2022, 00:17:33,    138,    1.0,   10.0,   0.00,   0.00, 1008.5,   90.7, -999.0
02-01-2022, 00:17:43,    213,    1.5,   10.0,   0.00,   0.00, 1008.6,   90.8, -999.0
02-01-2022, 00:17:52,    177,    0.0,   10.0,   0.00,   0.00, 1008.4,   90.6, -999.0
02-01-2022, 00:18:03,    171,    0.6,   10.0,   0.00,   0.00, 1008.6,   91.0, -999.0
02-01-2022, 00:18:12,    164,    0.9,   10.1,   0.00,   0.00, 1008.6,   90.8, -999.0
02-01-2022, 00:18:22,    232,    0.6,   10.0,   0.00,   0.00, 1008.5,   90.8, -999.0
02-01-2022, 00:18:33,    210,    0.6,   10.1,   0.00,   0.00, 1008.5,   90.8, -999.0
02-01-2022, 00:18:42,    209,    0.0,   10.0,   0.00,   0.00, 1008.4,   90.7, -999.0
02-01-2022, 00:18:52,    209,    0.0,    9.9,   0.00,   0.00, 1008.4,   90.5, -999.0
02-01-2022, 00:19:02,    208,    0.1,   10.0,   0.00,   0.00, 1008.5,   90.6, -999.0
02-01-2022, 00:19:12,    196,    1.6,   10.0,   0.00,   0.00, 1008.6,   90.9, -999.0
02-01-2022, 00:19:22,    187,    1.5,   10.0,   0.00,   0.00, 1008.6,   90.8, -999.0
02-01-2022, 00:19:32,    190,    0.8,   10.0,   0.00,   0.00, 1008.6,   90.8, -999.0
02-01-2022, 00:19:42,    230,    1.1,   10.0,   0.00,   0.00, 1008.6,   90.9, -999.0
02-01-2022, 00:19:52,    197,    0.5,    9.9,   0.00,   0.00, 1008.6,   90.9, -999.0
02-01-2022, 00:20:02,    208,    0.7,   10.0,   0.00,   0.00, 1008.6,   91.0, -999.0
02-01-2022, 00:20:12,    214,    0.0,   10.0,   0.00,   0.00, 1008.5,   90.6, -999.0
02-01-2022, 00:20:22,    195,    0.3,   10.0,   0.00,   0.00, 1008.5,   90.7, -999.0
02-01-2022, 00:20:32,    214,    1.7,   10.1,   0.00,   0.00, 1008.6,   91.0, -999.0
02-01-2022, 00:20:42,    199,    1.6,   10.1,   0.00,   0.00, 1008.6,   91.0, -999.0
02-01-2022, 00:20:51,    230,    1.5,   10.1,   0.00,   0.00, 1008.6,   91.1, -999.0
02-01-2022, 00:21:02,    227,    0.2,   10.0,   0.00,   0.00, 1008.6,   90.9, -999.0
02-01-2022, 00:21:12,    227,    0.0,   10.0,   0.00,   0.00, 1008.5,   90.7, -999.0
02-01-2022, 00:21:21,    227,    0.0,    9.9,   0.00,   0.00, 1008.4,   90.6, -999.0
02-01-2022, 00:21:31,    162,    0.4,   10.0,   0.00,   0.00, 1008.5,   90.8, -999.0
02-01-2022, 00:21:42,    219,    0.7,   10.0,   0.00,   0.00, 1008.6,   91.1, -999.0
02-01-2022, 00:21:51,    188,    0.9,   10.1,   0.00,   0.00, 1008.5,   91.1, -999.0
02-01-2022, 00:22:01,    167,    2.2,   10.1,   0.00,   0.00, 1008.6,   91.1, -999.0
02-01-2022, 00:22:11,    231,    1.4,   10.1,   0.00,   0.00, 1008.6,   91.0, -999.0
02-01-2022, 00:22:21,    186,    0.4,   10.0,   0.00,   0.00, 1008.5,   91.2, -999.0
02-01-2022, 00:22:31,    207,    1.3,   10.1,   0.00,   0.00, 1008.5,   91.1, -999.0
02-01-2022, 00:22:41,    206,    0.7,   10.1,   0.00,   0.00, 1008.5,   91.3, -999.0
02-01-2022, 00:22:51,    170,    1.3,   10.1,   0.00,   0.00, 1008.5,   91.1, -999.0
02-01-2022, 00:23:01,    136,    0.9,   10.0,   0.00,   0.00, 1008.5,   91.1, -999.0
02-01-2022, 00:23:11,    220,    0.8,   10.0,   0.00,   0.00, 1008.5,   91.0, -999.0
02-01-2022, 00:23:21,    203,    0.7,   10.1,   0.00,   0.00, 1008.5,   91.1, -999.0
02-01-2022, 00:23:31,    201,    0.7,   10.0,   0.00,   0.00, 1008.5,   91.0, -999.0
02-01-2022, 00:23:41,    184,    2.0,   10.0,   0.00,   0.00, 1008.5,   91.1, -999.0
02-01-2022, 00:23:51,    192,    2.5,   10.1,   0.00,   0.00, 1008.5,   91.1, -999.0
02-01-2022, 00:24:00,    222,    2.1,   10.1,   0.00,   0.00, 1008.6,   91.4, -999.0
02-01-2022, 00:24:11,    218,    1.2,   10.1,   0.00,   0.00, 1008.6,   91.2, -999.0
02-01-2022, 00:24:21,    217,    0.2,    9.9,   0.00,   0.00, 1008.4,   91.1, -999.0
02-01-2022, 00:24:30,    166,    2.3,   10.0,   0.00,   0.00, 1008.6,   91.3, -999.0
02-01-2022, 00:24:40,    241,    1.3,   10.1,   0.00,   0.00, 1008.5,   91.4, -999.0
02-01-2022, 00:24:50,    187,    0.6,   10.0,   0.00,   0.00, 1008.6,   91.5, -999.0
02-01-2022, 00:25:00,    209,    0.4,   10.1,   0.00,   0.00, 1008.5,   91.1, -999.0
02-01-2022, 00:25:10,    206,    1.6,   10.0,   0.00,   0.00, 1008.5,   91.1, -999.0
02-01-2022, 00:25:20,    207,    1.0,   10.1,   0.00,   0.00, 1008.5,   91.3, -999.0
02-01-2022, 00:25:30,    207,    0.7,   10.1,   0.00,   0.00, 1008.5,   91.6, -999.0
02-01-2022, 00:25:40,    208,    0.6,   10.1,   0.00,   0.00, 1008.5,   91.3, -999.0
02-01-2022, 00:25:50,    212,    3.2,   10.1,   0.00,   0.00, 1008.5,   91.2, -999.0
02-01-2022, 00:26:00,    198,    3.1,   10.1,   0.00,   0.00, 1008.6,   91.4, -999.0
02-01-2022, 00:26:10,    201,    1.5,   10.1,   0.00,   0.00, 1008.5,   91.3, -999.0
02-01-2022, 00:26:20,    198,    0.7,   10.1,   0.00,   0.00, 1008.5,   91.2, -999.0
02-01-2022, 00:26:30,    198,    0.4,   10.1,   0.00,   0.00, 1008.5,   91.1, -999.0
02-01-2022, 00:26:40,    214,    1.4,   10.0,   0.00,   0.00, 1008.5,   91.1, -999.0
02-01-2022, 00:26:50,    209,    3.3,   10.0,   0.00,   0.00, 1008.5,   91.3, -999.0
02-01-2022, 00:27:00,    209,    2.7,   10.1,   0.00,   0.00, 1008.5,   91.2, -999.0
02-01-2022, 00:27:09,    207,    0.9,   10.1,   0.00,   0.00, 1008.6,   91.4, -999.0
02-01-2022, 00:27:20,    181,    0.7,   10.0,   0.00,   0.00, 1008.5,   91.1, -999.0
02-01-2022, 00:27:30,    181,    0.1,   10.0,   0.00,   0.00, 1008.4,   90.9, -999.0
02-01-2022, 00:27:39,    182,    0.0,   10.0,   0.00,   0.00, 1008.4,   90.9, -999.0
02-01-2022, 00:27:50,    181,    0.0,   10.0,   0.00,   0.00, 1008.4,   91.0, -999.0
02-01-2022, 00:27:59,    182,    0.5,   10.1,   0.00,   0.00, 1008.5,   91.1, -999.0
02-01-2022, 00:28:09,    182,    0.1,   10.0,   0.00,   0.00, 1008.4,   90.9, -999.0
02-01-2022, 00:28:19,    181,    0.0,   10.0,   0.00,   0.00, 1008.4,   90.9, -999.0
02-01-2022, 00:28:29,    207,    0.6,   10.0,   0.00,   0.00, 1008.5,   91.0, -999.0
02-01-2022, 00:28:39,    162,    0.5,   10.0,   0.00,   0.00, 1008.5,   91.0, -999.0
02-01-2022, 00:28:49,    206,    1.1,   10.1,   0.00,   0.00, 1008.6,   91.3, -999.0
02-01-2022, 00:28:59,    221,    1.1,   10.0,   0.00,   0.00, 1008.5,   91.2, -999.0
02-01-2022, 00:29:09,    179,    1.1,   10.0,   0.00,   0.00, 1008.5,   91.2, -999.0
02-01-2022, 00:29:19,    210,    0.3,   10.1,   0.00,   0.00, 1008.5,   90.9, -999.0
02-01-2022, 00:29:29,    190,    1.5,   10.1,   0.00,   0.00, 1008.5,   91.2, -999.0
02-01-2022, 00:29:39,    203,    2.6,   10.1,   0.00,   0.00, 1008.5,   91.6, -999.0
02-01-2022, 00:29:49,    199,    1.4,   10.1,   0.00,   0.00, 1008.5,   91.4, -999.0
02-01-2022, 00:29:59,    166,    1.2,   10.0,   0.00,   0.00, 1008.5,   91.3, -999.0
02-01-2022, 00:30:09,    215,    1.6,   10.0,   0.00,   0.00, 1008.5,   91.4, -999.0
02-01-2022, 00:30:19,    223,    0.7,   10.1,   0.00,   0.00, 1008.5,   91.4, -999.0
02-01-2022, 00:30:29,    225,    1.1,   10.1,   0.00,   0.00, 1008.5,   91.3, -999.0
02-01-2022, 00:30:38,    209,    0.8,   10.1,   0.00,   0.00, 1008.5,   91.4, -999.0
02-01-2022, 00:30:48,    208,    0.5,   10.1,   0.00,   0.00, 1008.5,   91.2, -999.0
02-01-2022, 00:30:59,    207,    0.3,   10.1,   0.00,   0.00, 1008.5,   91.2, -999.0
02-01-2022, 00:31:08,    195,    1.9,   10.1,   0.00,   0.00, 1008.5,   91.3, -999.0
02-01-2022, 00:31:18,    196,    0.4,   10.1,   0.00,   0.00, 1008.4,   91.3, -999.0
02-01-2022, 00:31:28,    202,    0.8,   10.1,   0.00,   0.00, 1008.5,   91.1, -999.0
02-01-2022, 00:31:38,    201,    0.0,   10.0,   0.00,   0.00, 1008.4,   91.1, -999.0
02-01-2022, 00:31:48,    201,    0.0,   10.0,   0.00,   0.00, 1008.3,   90.9, -999.0
02-01-2022, 00:31:58,    201,    0.0,    9.9,   0.00,   0.00, 1008.3,   90.8, -999.0
02-01-2022, 00:32:08,    201,    0.0,    9.9,   0.00,   0.00, 1008.4,   91.0, -999.0
02-01-2022, 00:32:18,    209,    0.4,   10.0,   0.00,   0.00, 1008.4,   91.1, -999.0
02-01-2022, 00:32:28,    213,    0.5,   10.1,   0.00,   0.00, 1008.4,   91.2, -999.0
02-01-2022, 00:32:38,    213,    1.5,   10.0,   0.00,   0.00, 1008.5,   91.1, -999.0
02-01-2022, 00:32:48,    207,    1.2,   10.1,   0.00,   0.00, 1008.5,   91.2, -999.0
02-01-2022, 00:32:58,    227,    1.2,   10.1,   0.00,   0.00, 1008.5,   91.3, -999.0
02-01-2022, 00:33:08,    203,    1.2,   10.1,   0.00,   0.00, 1008.5,   91.4, -999.0
02-01-2022, 00:33:18,    209,    1.1,   10.1,   0.00,   0.00, 1008.5,   91.2, -999.0
02-01-2022, 00:33:28,    209,    0.4,   10.1,   0.00,   0.00, 1008.4,   91.2, -999.0
02-01-2022, 00:33:38,    208,    0.4,   10.0,   0.00,   0.00, 1008.4,   91.2, -999.0
02-01-2022, 00:33:47,    230,    0.8,   10.1,   0.00,   0.00, 1008.5,   91.3, -999.0
02-01-2022, 00:33:57,    203,    0.1,   10.0,   0.00,   0.00, 1008.4,   90.9, -999.0
02-01-2022, 00:34:08,    190,    0.1,   10.1,   0.00,   0.00, 1008.4,   91.0, -999.0
02-01-2022, 00:34:17,    201,    0.4,   10.0,   0.00,   0.00, 1008.5,   91.1, -999.0
02-01-2022, 00:34:27,    198,    2.0,   10.0,   0.00,   0.00, 1008.5,   91.6, -999.0
02-01-2022, 00:34:37,    193,    2.9,   10.1,   0.00,   0.00, 1008.5,   91.4, -999.0
02-01-2022, 00:34:47,    206,    1.5,   10.1,   0.00,   0.00, 1008.5,   91.3, -999.0
02-01-2022, 00:34:57,    226,    2.9,   10.1,   0.00,   0.00, 1008.5,   91.2, -999.0
02-01-2022, 00:35:07,    171,    2.5,   10.1,   0.00,   0.00, 1008.5,   91.3, -999.0
02-01-2022, 00:35:17,    164,    2.0,   10.1,   0.00,   0.00, 1008.5,   91.4, -999.0
02-01-2022, 00:35:27,    212,    1.5,   10.1,   0.00,   0.00, 1008.5,   91.5, -999.0
02-01-2022, 00:35:37,    228,    0.4,   10.0,   0.00,   0.00, 1008.4,   91.1, -999.0
02-01-2022, 00:35:47,    147,    0.7,   10.1,   0.00,   0.00, 1008.4,   91.1, -999.0
02-01-2022, 00:35:57,    188,    0.9,   10.1,   0.00,   0.00, 1008.4,   91.2, -999.0
02-01-2022, 00:36:07,    206,    0.8,   10.1,   0.00,   0.00, 1008.5,   91.3, -999.0
02-01-2022, 00:36:17,    205,    0.7,   10.1,   0.00,   0.00, 1008.4,   91.1, -999.0
02-01-2022, 00:36:26,    204,    1.1,   10.0,   0.00,   0.00, 1008.4,   91.3, -999.0
02-01-2022, 00:36:37,    230,    0.5,   10.1,   0.00,   0.00, 1008.4,   91.1, -999.0
02-01-2022, 00:36:47,    193,    0.3,   10.1,   0.00,   0.00, 1008.4,   91.1, -999.0
02-01-2022, 00:36:56,    141,    1.5,   10.1,   0.00,   0.00, 1008.4,   91.1, -999.0
02-01-2022, 00:37:06,    211,    1.6,   10.1,   0.00,   0.00, 1008.4,   91.1, -999.0
02-01-2022, 00:37:17,    208,    1.2,   10.1,   0.00,   0.00, 1008.4,   91.2, -999.0
02-01-2022, 00:37:26,    207,    0.0,   10.1,   0.00,   0.00, 1008.3,   90.9, -999.0
02-01-2022, 00:37:36,    236,    0.7,   10.1,   0.00,   0.00, 1008.3,   91.0, -999.0
02-01-2022, 00:37:46,    235,    0.8,   10.1,   0.00,   0.00, 1008.4,   91.2, -999.0
02-01-2022, 00:37:56,    160,    0.3,   10.0,   0.00,   0.00, 1008.4,   91.0, -999.0
02-01-2022, 00:38:06,    159,    0.1,   10.0,   0.00,   0.00, 1008.3,   91.0, -999.0
02-01-2022, 00:38:16,    159,    0.0,   10.0,   0.00,   0.00, 1008.3,   90.8, -999.0
02-01-2022, 00:38:26,    159,    0.0,   10.0,   0.00,   0.00, 1008.3,   90.8, -999.0
02-01-2022, 00:38:36,    200,    0.2,   10.1,   0.00,   0.00, 1008.4,   91.1, -999.0
02-01-2022, 00:38:46,    154,    0.0,   10.0,   0.00,   0.00, 1008.3,   90.9, -999.0
02-01-2022, 00:38:56,    152,    0.4,   10.1,   0.00,   0.00, 1008.3,   90.9, -999.0
02-01-2022, 00:39:06,    244,    0.6,   10.0,   0.00,   0.00, 1008.4,   91.1, -999.0
02-01-2022, 00:39:16,    205,    1.1,   10.1,   0.00,   0.00, 1008.4,   91.2, -999.0
02-01-2022, 00:39:26,    205,    0.0,   10.0,   0.00,   0.00, 1008.2,   90.8, -999.0
02-01-2022, 00:39:35,    205,    0.0,   10.0,   0.00,   0.00, 1008.2,   90.8, -999.0
02-01-2022, 00:39:46,    205,    0.0,   10.0,   0.00,   0.00, 1008.2,   90.9, -999.0
02-01-2022, 00:39:56,    204,    0.1,   10.0,   0.00,   0.00, 1008.3,   90.9, -999.0
02-01-2022, 00:40:05,    197,    0.6,   10.1,   0.00,   0.00, 1008.4,   91.1, -999.0
02-01-2022, 00:40:16,    225,    0.2,   10.1,   0.00,   0.00, 1008.3,   91.0, -999.0
02-01-2022, 00:40:26,    224,    0.8,   10.1,   0.00,   0.00, 1008.4,   91.3, -999.0
02-01-2022, 00:40:35,    222,    0.0,    9.9,   0.00,   0.00, 1008.3,   90.8, -999.0
02-01-2022, 00:40:45,    222,    0.0,   10.0,   0.00,   0.00, 1008.3,   90.9, -999.0
02-01-2022, 00:40:55,    205,    0.1,   10.0,   0.00,   0.00, 1008.3,   91.0, -999.0
02-01-2022, 00:41:05,    220,    0.1,   10.1,   0.00,   0.00, 1008.3,   91.2, -999.0
02-01-2022, 00:41:15,    185,    0.2,   10.1,   0.00,   0.00, 1008.3,   91.2, -999.0
02-01-2022, 00:41:25,    185,    0.3,   10.1,   0.00,   0.00, 1008.3,   91.1, -999.0
02-01-2022, 00:41:35,    205,    0.3,   10.1,   0.00,   0.00, 1008.3,   91.2, -999.0
02-01-2022, 00:41:45,    208,    1.6,   10.1,   0.00,   0.00, 1008.4,   91.2, -999.0
02-01-2022, 00:41:55,    217,    0.7,   10.2,   0.00,   0.00, 1008.3,   91.2, -999.0
02-01-2022, 00:42:05,    202,    1.4,   10.2,   0.00,   0.00, 1008.4,   91.2, -999.0
02-01-2022, 00:42:15,    201,    0.7,   10.1,   0.00,   0.00, 1008.3,   91.0, -999.0
02-01-2022, 00:42:25,    200,    0.3,   10.1,   0.00,   0.00, 1008.3,   91.0, -999.0
02-01-2022, 00:42:35,    201,    0.0,   10.1,   0.00,   0.00, 1008.3,   90.8, -999.0
02-01-2022, 00:42:45,    200,    0.0,   10.1,   0.00,   0.00, 1008.2,   90.8, -999.0
02-01-2022, 00:42:55,    200,    0.4,   10.1,   0.00,   0.00, 1008.3,   90.9, -999.0
02-01-2022, 00:43:05,    200,    0.2,   10.1,   0.00,   0.00, 1008.3,   91.0, -999.0
02-01-2022, 00:43:14,    219,    0.1,   10.1,   0.00,   0.00, 1008.2,   91.0, -999.0
02-01-2022, 00:43:25,    219,    0.0,   10.1,   0.00,   0.00, 1008.2,   90.9, -999.0
02-01-2022, 00:43:34,    188,    1.7,   10.1,   0.00,   0.00, 1008.3,   91.2, -999.0
02-01-2022, 00:43:44,    188,    0.4,   10.0,   0.00,   0.00, 1008.2,   91.1, -999.0
02-01-2022, 00:43:54,    188,    0.0,   10.1,   0.00,   0.00, 1008.1,   91.0, -999.0
02-01-2022, 00:44:04,    191,    0.4,   10.1,   0.00,   0.00, 1008.2,   91.1, -999.0
02-01-2022, 00:44:14,    231,    2.7,   10.2,   0.00,   0.00, 1008.3,   91.2, -999.0
02-01-2022, 00:44:24,    195,    2.0,   10.2,   0.00,   0.00, 1008.3,   91.3, -999.0
02-01-2022, 00:44:34,    233,    0.9,   10.2,   0.00,   0.00, 1008.3,   91.1, -999.0
02-01-2022, 00:44:44,    232,    0.4,   10.1,   0.00,   0.00, 1008.2,   91.0, -999.0
02-01-2022, 00:44:54,    229,    2.1,   10.1,   0.00,   0.00, 1008.3,   91.2, -999.0
02-01-2022, 00:45:04,    168,    2.2,   10.2,   0.00,   0.00, 1008.3,   91.3, -999.0
02-01-2022, 00:45:14,    168,    0.1,   10.1,   0.00,   0.00, 1008.2,   91.0, -999.0
02-01-2022, 00:45:24,    168,    0.0,   10.1,   0.00,   0.00, 1008.2,   90.8, -999.0
02-01-2022, 00:45:34,    168,    0.0,   10.1,   0.00,   0.00, 1008.2,   90.8, -999.0
02-01-2022, 00:45:44,    199,    0.4,   10.1,   0.00,   0.00, 1008.3,   91.1, -999.0
02-01-2022, 00:45:54,    191,    1.1,   10.2,   0.00,   0.00, 1008.3,   91.0, -999.0
02-01-2022, 00:46:04,    223,    0.5,   10.2,   0.00,   0.00, 1008.3,   91.1, -999.0
02-01-2022, 00:46:13,    196,    1.7,   10.2,   0.00,   0.00, 1008.3,   91.1, -999.0
02-01-2022, 00:46:23,    216,    1.7,   10.2,   0.00,   0.00, 1008.3,   91.2, -999.0
02-01-2022, 00:46:34,    173,    1.1,   10.2,   0.00,   0.00, 1008.3,   91.1, -999.0
02-01-2022, 00:46:43,    173,    1.0,   10.2,   0.00,   0.00, 1008.3,   91.1, -999.0